Location: Unspecified
(0.0000°N, 0.0000°E)
Time: 18:08:58
(UTC+00:00)

CUTE-I - Pass Details

Date: 29 May 2019
Orbit: 810 x 825 km, 98.7° (Epoch: 24 June)

Event Time Altitude Azimuth Distance (km) Brightness Sun altitude
Rises 05:03:41 0° 40° (NE) 3,324 ? -12.5°
Reaches altitude 10° 05:06:37 10° 57° (ENE) 2,398 ? -11.8°
Maximum altitude 05:10:25 20° 103° (ESE) 1,799 ? -10.9°
Drops below altitude 10° 05:14:14 10° 149° (SSE) 2,412 ? -10.0°
Sets 05:17:10 0° 165° (SSE) 3,350 ? -9.3°
